{"data":{"norad_id":68619,"epoch":"2026-09-19T00:34:25.702176Z","epoch_age_seconds":171379,"freshness":"FRESH","line1":"1 68619U 26073T   26262.02390859  .00012192  00000+0  37933-3 0  9994","line2":"2 68619  97.2849 100.0495 0002607  92.2234 267.9307 15.33445348 25514","mean_motion":15.33445348,"eccentricity":0.0002607,"inclination_deg":97.2849,"raan_deg":100.0495,"arg_perigee_deg":92.2234,"mean_anomaly_deg":267.9307,"bstar":0.00037933,"rev_number":2551,"period_min":93.906183345766,"perigee_km":463.75799192361,"apogee_km":467.32628622672,"semimajor_km":6843.6791390752,"source":"CELESTRAK","updated_at":"2026-09-20T09:00:43.946610Z"}}